Regional Weather Roundup
Issued by NWS

Home | Current Version | Previous Version | Text Only | Print | Product List | Glossary On
Versions: 1 2 3 4 5 6 7 8 9 10 11 12 13 14 15 16 17 18 19 20 21 22 23 24 25 26 27 28 29 30 31 32 33 34 35 36 37 38 39 40 41 42 43 44 45 46 47 48 49 50
000
ASUS44 KEWX 280412
RWRTX
SOUTH TEXAS REGIONAL WEATHER ROUNDUP
NATIONAL WEATHER SERVICE AUSTIN/SAN ANTONIO TX
1000 PM CST MON FEB 27 2017

NOTE: "FAIR" INDICATED FEW OR NO CLOUDS BELOW 12,000 FEET WITH NO
SIGNIFICANT WEATHER AND/OR OBSTRUCTIONS TO VISIBILITY.

* - THESE STATIONS ARE NOT NWS OR FAA STATIONS...AND ARE NOT SUBJECT
    TO NWS AND FAA QUALITY CONTROL.

TXZ171-172-183>190-280500-
TEXAS HILL COUNTRY AND EDWARDS PLATEAU

CITY           SKY/WX    TMP DP  RH WIND       PRES   REMARKS
JUNCTION       CLEAR     67  58  72 S3        29.93R
*LLANO         CLEAR     72  63  73 S3        29.95R
BURNET         CLEAR     67  60  78 S6        29.95R
*HORSESHOE BAY   N/A     66  61  84 S5        29.93R
*KERRVILLE     CLEAR     61  59  93 CALM      29.95R
*FREDERICKSBRG CLEAR     66  58  77 CALM      29.95R
*ROCKSPRINGS   CLEAR     64  57  77 SE8       29.97R
*BOERNE STAGE  CLEAR     64  61  88 S5        29.96R
*CASTROVILLE   CLEAR     69  62  79 SE6       29.94R
HONDO          CLEAR     71  64  78 SE12      29.92R
*UVALDE        CLEAR     66  62  86 CALM      29.91S
DEL RIO        CLEAR     69  57  65 E8        29.88R
LAUGHLIN AFB   PTCLDY    64  57  80 E9        29.88R
CARRIZO SPRGS  CLEAR     73  63  68 SE6       29.87R
*EAGLE PASS    CLEAR     70  55  60 E9        29.88R
$$

TXZ173-191>194-202-209-217>225-228-280500-
CENTRAL AND SOUTH CENTRAL TEXAS

CITY           SKY/WX    TMP DP  RH WIND       PRES   REMARKS
GEORGETOWN     CLEAR     72  63  73 S9        29.92R
AUSTIN/BERGSTM PTCLDY    71  66  84 S10       29.92S
AUSTIN/MABRY   CLEAR     72  65  78 S7        29.94R
*AUSTIN/EXEC   CLEAR     70  66  88 S8        29.94R
*LAGO VISTA    CLEAR     70  65  83 S9        29.95R
SAN MARCOS     CLEAR     68  64  88 S10       29.94S
NEW BRAUNFELS  PTCLDY    70  65  84 S13       29.92R
RANDOLPH AFB   CLEAR     68  68  99 S13       29.93R
PT SAN ANTONIO CLEAR     71  66  84 SE9       29.91R
SAN ANTONIO    PTCLDY    70  65  84 SE13      29.94R
STINSON FIELD  CLEAR     71  65  81 SE10      29.91R
*PLEASANTON    CLEAR     70  66  86 SE7       29.92S
*LA GRANGE     MOCLDY    73  70  92 S10       29.94R
*GIDDINGS      MOCLDY    71  67  87 S10       29.96R
*GONZALES      MOCLDY    71  70  98 SE10      29.94R
$$

TXZ163>164-176>182-195>201-210>213-226-227-235-280500-
SOUTHEAST TEXAS

CITY           SKY/WX    TMP DP  RH WIND       PRES   REMARKS
COLLEGE STN    MOCLDY    72  68  87 S10       29.95R
*BRYAN         MOCLDY    70  68  92 S8        29.97R
*CALDWELL      NOT AVBL
*CROCKETT      MOCLDY    70  66  88 S9        30.00R
*BRENHAM       CLOUDY    73  71  91 S9        29.96R
HUNTSVILLE     MOCLDY    72  67  84 S9        29.96R
CONROE         CLOUDY    71  68  90 SE13      29.97S
HOUSTON BUSH   CLOUDY    73  69  87 S15G22    29.97R
HOUSTON HOBBY  CLOUDY    72  70  93 S9        29.98R
*HOUSTON SW AP CLOUDY    71  69  96 SE5       29.99R FOG
PEARLAND       CLOUDY    74  70  87 S10       29.99R
HOUSTON HOOKS  CLOUDY    73  69  87 SE8       29.97R
ELLINGTON FLD  CLOUDY    73  72  94 SE10      30.00R
SUGAR LAND     CLOUDY    72  71  97 SE12      29.97R
*HOUSTON EXEC  CLOUDY    72  70  94 S10       29.98R FOG
*CLEVELAND MUN CLOUDY    73  69  89 S12G17    29.99R FOG
*WHARTON       CLOUDY    72  69  90 SE10      29.97R
*COLUMBUS      CLOUDY    71  69  94 S9        29.97R
*EAGLE LAKE    CLOUDY    74  73  97 S10       29.96R
$$

TXZ214>216-236>238-280500-
THE UPPER TEXAS COAST

CITY           SKY/WX    TMP DP  RH WIND       PRES   REMARKS
*ORANGE        CLOUDY    72  70  93 S14       30.03S
PORT ARTHUR    CLOUDY    72  68  87 SE15      30.01R
GALVESTON      CLOUDY    71  70  96 SE18      30.00R
ANGLETON       CLOUDY    74  72  93 SE13G21   29.98R
*BAY CITY      CLOUDY    73  72  97 SE10      29.96S FOG
PALACIOS       CLOUDY    71  70  96 SE15      29.95R FOG
$$

TXZ229>234-239>247-280500-
TEXAS COASTAL BEND AND RIO GRANDE PLAINS

CITY           SKY/WX    TMP DP  RH WIND       PRES   REMARKS
VICTORIA       CLOUDY    72  70  93 SE12      29.96R FOG
*BEEVILLE      CLOUDY    72  72 100 SE12G17   29.94R FOG
ROCKPORT       MOCLDY    73  70  90 SE12      29.94R FOG
*PORT ARANSAS  CLEAR     71  70  97 S14       29.94S FOG
*PORT LAVACA   CLOUDY    72  72 100 CALM      29.95S FOG
*INGLESIDE     PTCLDY    74  72  93 SE8       29.94R FOG
CORPUS CHRISTI MOCLDY    73  71  93 SE18      29.93R
CORPUS NAS     MOCLDY    73  73 100 SE17      29.94R FOG
*ROBSTOWN      CLEAR     73  73 100 SE9G17    29.94R
ALICE          PTCLDY    71  69  93 SE9       29.92R
KINGSVILLE NAS MOCLDY    73  72  96 SE16      29.93R FOG
COTULLA        CLEAR     75  64  68 SE13      29.90R
*FAITH RANCH   PTCLDY    77  63  61 SE10      29.88R
LAREDO         CLEAR     77  64  64 E13       29.88S
$$

TXZ248>255-280500-
DEEP SOUTH TEXAS

CITY           SKY/WX    TMP DP  RH WIND       PRES   REMARKS
BROWNSVILLE    CLOUDY    75  72  90 SE15      29.95R
PORT ISABEL    CLOUDY    75  73  93 S12       29.94R FOG
*SOUTH PADRE   NOT AVBL
HARLINGEN      CLOUDY    77  73  87 S18       29.93R FOG
*HEBBRONVILLE  CLEAR     71  67  87 SE9       29.93R
MCALLEN        CLOUDY    79  70  74 SE15      29.93R
*WESLACO       CLOUDY    76  71  83 S10       29.92S
FALFURRIAS     CLEAR     73  70  90 SE12      29.92R
EDINBURG       CLOUDY    78  70  76 SE13      29.92F
*ZAPATA        CLEAR     78  65  63 SE8       29.90R
$$

TXZ213>215-236>238-242>244-246-247-251-254-255-280500-
CMAN STATIONS

STATION/POSITION TIME  TEMP    WIND        PRES    WAVE
                       AIR SEA DIR/SP/G            HT/PER
                 (UTC) (F)     (DEG/KT/KT) (MB)    (FT/S)
SABINE PASS      0348   70 69  150/ 14/ 20 1017.6
SEA RIM ST PARK  0400   69     150/ 13/ 15 1016.9
NORTH JETTY/GLS  0348          140/ 19/ 21   N/A
EAGLE POINT      0348   70 69  180/ 14/ 18 1015.6
MORGANS POINT    0348   70 67  150/  9/ 12 1015.5
MISSION/ARANSAS  0300   72                 1014.0
PORT O`CONNOR    0348   70     130/ 15/ 17 1013.7
PORT ARANSAS     0400   71 69  140/ 19/ 21 1013.8
MALAQUITE BEACH  0348   70 71  120/ 12/ 13 1014.4
BAFFIN BAY       0348   72 74  110/ 12/ 14 1013.8
PORT ISABEL      0348   74 73  150/ 14/ 17 1014.0
$$

GMZ080-GMZ150>470-280500-
OFFSHORE BUOY REPORTS

STATION/POSITION TIME  TEMP    WIND        PRES    WAVE
                       AIR SEA DIR/SP/G            HT/PER
                 (UTC) (F)     (DEG/KT/KT) (MB)    (FT/S)
20 E GALVESTON   0350   69 67  150/ 17/ 19 1015.6    3/ 7
90 E PT ARANSAS  0350   72 70  130/ 10/ 12 1015.2    4/ 7
35 NE PT MANSFLD 0350   75     150/ 14/ 17 1013.6    5/ 7
200 E PT ISABEL  0350   75 74  150/ 14/ 17 1016.7    6/ 7
$$



USA.gov is the U.S. government's official web portal to all federal, state and local government web resources and services.